Time,TemperatureF,DewpointF,PressureIn,WindDirection,WindDirectionDegrees,WindSpeedMPH,WindSpeedGustMPH,Humidity,HourlyPrecipIn,Conditions,Clouds,dailyrainin,SoftwareType,DateUTC
2013-11-17 00:00:00,69.7,64.3,29.48,SSE,166,4.0,4.0,83,0.00,,,0.00,Wunderground v.1.15,2013-11-17 06:00:00,
2013-11-17 00:06:00,69.7,64.3,29.48,SSE,155,4.0,11.0,83,0.00,,,0.00,Wunderground v.1.15,2013-11-17 06:06:00,
2013-11-17 00:09:00,69.7,64.3,29.48,SSE,168,5.0,11.0,83,0.00,,,0.00,Wunderground v.1.15,2013-11-17 06:09:00,
2013-11-17 00:12:00,69.7,64.3,29.48,South,169,4.0,4.0,83,0.00,,,0.00,Wunderground v.1.15,2013-11-17 06:12:00,
2013-11-17 00:16:00,69.5,64.1,29.48,SSE,163,3.0,4.0,83,0.00,,,0.00,Wunderground v.1.15,2013-11-17 06:16:00,
2013-11-17 00:20:00,69.5,64.1,29.48,SSE,157,3.0,3.0,83,0.00,,,0.00,Wunderground v.1.15,2013-11-17 06:20:00,
2013-11-17 00:22:00,69.5,64.1,29.48,SSW,206,4.0,12.0,83,0.00,,,0.00,Wunderground v.1.15,2013-11-17 06:22:00,
2013-11-17 00:24:00,69.5,64.5,29.48,South,182,4.0,12.0,84,0.00,,,0.00,Wunderground v.1.15,2013-11-17 06:24:00,
2013-11-17 00:26:00,69.5,64.1,29.48,South,175,3.0,12.0,83,0.00,,,0.00,Wunderground v.1.15,2013-11-17 06:26:00,
2013-11-17 00:28:00,69.5,64.5,29.48,South,184,3.0,12.0,84,0.00,,,0.00,Wunderground v.1.15,2013-11-17 06:28:00,
2013-11-17 00:30:00,69.4,64.4,29.48,South,184,3.0,5.0,84,0.00,,,0.00,Wunderground v.1.15,2013-11-17 06:30:00,
2013-11-17 00:32:00,69.4,64.4,29.48,SSE,165,3.0,5.0,84,0.00,,,0.00,Wunderground v.1.15,2013-11-17 06:32:00,
2013-11-17 00:34:00,69.4,64.4,29.47,SSE,161,2.0,5.0,84,0.00,,,0.00,Wunderground v.1.15,2013-11-17 06:34:00,
2013-11-17 00:36:00,69.3,64.3,29.48,South,179,3.0,5.0,84,0.00,,,0.00,Wunderground v.1.15,2013-11-17 06:36:00,
2013-11-17 00:39:00,69.3,64.3,29.47,South,181,3.0,6.0,84,0.00,,,0.00,Wunderground v.1.15,2013-11-17 06:39:00,
2013-11-17 00:44:00,69.3,64.3,29.47,South,191,4.0,10.0,84,0.00,,,0.00,Wunderground v.1.15,2013-11-17 06:44:00,
2013-11-17 00:46:00,69.3,64.3,29.47,South,172,5.0,10.0,84,0.00,,,0.00,Wunderground v.1.15,2013-11-17 06:46:00,
2013-11-17 00:49:00,69.3,64.3,29.47,South,170,4.0,10.0,84,0.00,,,0.00,Wunderground v.1.15,2013-11-17 06:49:00,
2013-11-17 00:50:00,69.3,64.3,29.47,South,180,4.0,6.0,84,0.00,,,0.00,Wunderground v.1.15,2013-11-17 06:50:00,
2013-11-17 00:52:00,69.3,64.3,29.46,South,183,4.0,6.0,84,0.00,,,0.00,Wunderground v.1.15,2013-11-17 06:52:00,
2013-11-17 00:56:00,69.3,64.3,29.46,South,169,4.0,6.0,84,0.00,,,0.00,Wunderground v.1.15,2013-11-17 06:56:00,
2013-11-17 00:59:00,69.3,64.3,29.46,SSW,195,5.0,6.0,84,0.00,,,0.00,Wunderground v.1.15,2013-11-17 06:59:00,
2013-11-17 01:00:00,69.3,64.3,29.46,SSW,193,5.0,5.0,84,0.00,,,0.00,Wunderground v.1.15,2013-11-17 07:00:00,
2013-11-17 01:02:00,69.4,64.4,29.46,South,175,6.0,6.0,84,0.00,,,0.00,Wunderground v.1.15,2013-11-17 07:02:00,
2013-11-17 01:04:00,69.4,64.4,29.46,SSW,211,6.0,9.0,84,0.00,,,0.00,Wunderground v.1.15,2013-11-17 07:04:00,
2013-11-17 01:09:00,69.3,64.3,29.46,South,186,5.0,9.0,84,0.00,,,0.00,Wunderground v.1.15,2013-11-17 07:09:00,
2013-11-17 01:12:00,69.2,64.2,29.46,South,177,5.0,5.0,84,0.00,,,0.00,Wunderground v.1.15,2013-11-17 07:12:00,
2013-11-17 01:14:00,69.3,64.6,29.46,SSE,164,5.0,5.0,85,0.00,,,0.00,Wunderground v.1.15,2013-11-17 07:14:00,
2013-11-17 01:16:00,69.2,64.2,29.46,West,275,5.0,5.0,84,0.00,,,0.00,Wunderground v.1.15,2013-11-17 07:16:00,
2013-11-17 01:19:00,69.2,64.5,29.46,South,173,4.0,13.0,85,0.00,,,0.00,Wunderground v.1.15,2013-11-17 07:19:00,
2013-11-17 01:20:00,69.2,64.5,29.45,South,182,4.0,4.0,85,0.00,,,0.00,Wunderground v.1.15,2013-11-17 07:20:00,
2013-11-17 01:22:00,69.2,64.5,29.46,South,169,4.0,4.0,85,0.00,,,0.00,Wunderground v.1.15,2013-11-17 07:22:00,
2013-11-17 01:24:00,69.2,64.5,29.46,SSE,168,4.0,4.0,85,0.00,,,0.00,Wunderground v.1.15,2013-11-17 07:24:00,
2013-11-17 01:28:00,69.2,64.5,29.46,South,182,4.0,6.0,85,0.00,,,0.00,Wunderground v.1.15,2013-11-17 07:28:00,
2013-11-17 01:30:00,69.2,64.5,29.46,SSE,167,3.0,3.0,85,0.00,,,0.00,Wunderground v.1.15,2013-11-17 07:30:00,
2013-11-17 01:32:00,69.2,64.5,29.46,SSW,202,3.0,3.0,85,0.00,,,0.00,Wunderground v.1.15,2013-11-17 07:32:00,
2013-11-17 01:34:00,69.2,64.5,29.45,South,178,3.0,3.0,85,0.00,,,0.00,Wunderground v.1.15,2013-11-17 07:34:00,
2013-11-17 01:40:00,69.2,64.5,29.45,SSW,195,4.0,4.0,85,0.00,,,0.00,Wunderground v.1.15,2013-11-17 07:40:00,
2013-11-17 01:42:00,69.2,64.5,29.45,South,184,5.0,5.0,85,0.00,,,0.00,Wunderground v.1.15,2013-11-17 07:42:00,
2013-11-17 01:46:00,69.2,64.5,29.45,South,190,4.0,10.0,85,0.00,,,0.00,Wunderground v.1.15,2013-11-17 07:46:00,
2013-11-17 01:50:00,69.1,64.4,29.45,South,173,4.0,4.0,85,0.00,,,0.00,Wunderground v.1.15,2013-11-17 07:50:00,
2013-11-17 01:54:00,69.2,64.5,29.45,South,169,5.0,5.0,85,0.00,,,0.00,Wunderground v.1.15,2013-11-17 07:54:00,
2013-11-17 01:56:00,69.1,64.4,29.45,South,183,4.0,8.0,85,0.00,,,0.00,Wunderground v.1.15,2013-11-17 07:56:00,
2013-11-17 02:00:00,69.2,64.5,29.45,SSE,167,5.0,5.0,85,0.00,,,0.00,Wunderground v.1.15,2013-11-17 08:00:00,
2013-11-17 02:02:00,69.2,64.5,29.45,SSW,192,4.0,5.0,85,0.00,,,0.00,Wunderground v.1.15,2013-11-17 08:02:00,
2013-11-17 02:04:00,69.1,64.4,29.45,SSE,152,4.0,5.0,85,0.00,,,0.00,Wunderground v.1.15,2013-11-17 08:04:00,
2013-11-17 02:09:00,69.1,64.4,29.45,South,181,4.0,5.0,85,0.00,,,0.00,Wunderground v.1.15,2013-11-17 08:09:00,
2013-11-17 02:10:00,69.2,64.5,29.46,South,188,4.0,4.0,85,0.00,,,0.00,Wunderground v.1.15,2013-11-17 08:10:00,
2013-11-17 02:12:00,69.1,64.4,29.45,South,173,4.0,4.0,85,0.00,,,0.00,Wunderground v.1.15,2013-11-17 08:12:00,
2013-11-17 02:14:00,69.1,64.4,29.45,SSE,168,4.0,4.0,85,0.00,,,0.00,Wunderground v.1.15,2013-11-17 08:14:00,
2013-11-17 02:19:00,69.0,64.3,29.45,SSW,192,3.0,4.0,85,0.00,,,0.00,Wunderground v.1.15,2013-11-17 08:19:00,
2013-11-17 02:20:00,69.0,64.3,29.46,South,189,3.0,3.0,85,0.00,,,0.00,Wunderground v.1.15,2013-11-17 08:20:00,
2013-11-17 02:22:00,69.1,64.4,29.46,SE,146,3.0,3.0,85,0.00,,,0.00,Wunderground v.1.15,2013-11-17 08:22:00,
2013-11-17 02:24:00,69.0,64.3,29.45,SSE,149,3.0,6.0,85,0.00,,,0.00,Wunderground v.1.15,2013-11-17 08:24:00,
2013-11-17 02:26:00,69.0,64.3,29.46,South,170,3.0,6.0,85,0.00,,,0.00,Wunderground v.1.15,2013-11-17 08:26:00,
2013-11-17 02:29:00,69.1,64.4,29.46,South,169,3.0,6.0,85,0.00,,,0.00,Wunderground v.1.15,2013-11-17 08:29:00,
2013-11-17 02:30:00,69.1,64.4,29.45,South,191,4.0,4.0,85,0.00,,,0.00,Wunderground v.1.15,2013-11-17 08:30:00,
2013-11-17 02:32:00,69.1,64.4,29.45,South,188,3.0,4.0,85,0.00,,,0.00,Wunderground v.1.15,2013-11-17 08:32:00,
2013-11-17 02:36:00,69.2,64.5,29.45,South,179,4.0,4.0,85,0.00,,,0.00,Wunderground v.1.15,2013-11-17 08:36:00,
2013-11-17 02:39:00,69.2,64.5,29.45,South,179,4.0,4.0,85,0.00,,,0.00,Wunderground v.1.15,2013-11-17 08:39:00,
2013-11-17 02:40:00,69.2,64.5,29.45,South,182,3.0,3.0,85,0.00,,,0.00,Wunderground v.1.15,2013-11-17 08:40:00,
2013-11-17 02:42:00,69.2,64.5,29.45,SSE,148,4.0,4.0,85,0.00,,,0.00,Wunderground v.1.15,2013-11-17 08:42:00,
2013-11-17 02:46:00,69.2,64.5,29.45,South,171,4.0,9.0,85,0.00,,,0.00,Wunderground v.1.15,2013-11-17 08:46:00,
2013-11-17 02:49:00,69.2,64.5,29.45,South,173,4.0,13.0,85,0.00,,,0.00,Wunderground v.1.15,2013-11-17 08:49:00,
2013-11-17 02:50:00,69.2,64.5,29.45,SSE,165,5.0,5.0,85,0.00,,,0.00,Wunderground v.1.15,2013-11-17 08:50:00,
2013-11-17 02:52:00,69.2,64.5,29.45,SSE,164,4.0,5.0,85,0.00,,,0.00,Wunderground v.1.15,2013-11-17 08:52:00,
2013-11-17 02:54:00,69.2,64.5,29.45,SSE,165,4.0,5.0,85,0.00,,,0.00,Wunderground v.1.15,2013-11-17 08:54:00,
2013-11-17 02:59:00,69.2,64.5,29.45,South,177,3.0,7.0,85,0.00,,,0.00,Wunderground v.1.15,2013-11-17 08:59:00,
2013-11-17 03:02:00,69.1,64.4,29.45,SSE,167,4.0,4.0,85,0.00,,,0.00,Wunderground v.1.15,2013-11-17 09:02:00,
2013-11-17 03:04:00,69.1,64.4,29.45,South,190,3.0,9.0,85,0.00,,,0.00,Wunderground v.1.15,2013-11-17 09:04:00,
2013-11-17 03:06:00,69.2,64.5,29.45,SSW,196,3.0,9.0,85,0.00,,,0.00,Wunderground v.1.15,2013-11-17 09:06:00,
2013-11-17 03:10:00,69.2,64.5,29.45,South,176,3.0,3.0,85,0.00,,,0.00,Wunderground v.1.15,2013-11-17 09:10:00,
2013-11-17 03:12:00,69.1,64.4,29.45,SSE,165,3.0,10.0,85,0.00,,,0.00,Wunderground v.1.15,2013-11-17 09:12:00,
2013-11-17 03:18:00,69.0,64.3,29.45,SSE,161,3.0,10.0,85,0.00,,,0.00,Wunderground v.1.15,2013-11-17 09:18:00,
2013-11-17 03:20:00,69.0,64.3,29.45,SSE,158,3.0,3.0,85,0.00,,,0.00,Wunderground v.1.15,2013-11-17 09:20:00,
2013-11-17 03:24:00,69.0,64.3,29.45,South,178,3.0,3.0,85,0.00,,,0.00,Wunderground v.1.15,2013-11-17 09:24:00,
2013-11-17 03:26:00,69.0,64.3,29.45,South,176,3.0,3.0,85,0.00,,,0.00,Wunderground v.1.15,2013-11-17 09:26:00,
2013-11-17 03:29:00,69.0,64.3,29.45,SSE,149,2.0,4.0,85,0.00,,,0.00,Wunderground v.1.15,2013-11-17 09:29:00,
2013-11-17 03:30:00,68.9,64.2,29.45,South,184,2.0,2.0,85,0.00,,,0.00,Wunderground v.1.15,2013-11-17 09:30:00,
2013-11-17 03:36:00,68.9,63.9,29.45,SSE,154,3.0,4.0,84,0.00,,,0.00,Wunderground v.1.15,2013-11-17 09:36:00,
2013-11-17 03:39:00,68.9,63.9,29.45,SSE,164,3.0,10.0,84,0.00,,,0.00,Wunderground v.1.15,2013-11-17 09:39:00,
2013-11-17 03:40:00,68.9,63.9,29.45,SSE,168,3.0,4.0,84,0.00,,,0.00,Wunderground v.1.15,2013-11-17 09:40:00,
2013-11-17 03:44:00,68.8,63.8,29.45,SSE,150,2.0,4.0,84,0.00,,,0.00,Wunderground v.1.15,2013-11-17 09:44:00,
2013-11-17 03:46:00,68.8,63.8,29.45,South,186,2.0,4.0,84,0.00,,,0.00,Wunderground v.1.15,2013-11-17 09:46:00,
2013-11-17 03:49:00,68.8,63.8,29.45,South,180,2.0,4.0,84,0.00,,,0.00,Wunderground v.1.15,2013-11-17 09:49:00,
2013-11-17 03:50:00,68.8,63.8,29.45,SSE,163,3.0,3.0,84,0.00,,,0.00,Wunderground v.1.15,2013-11-17 09:50:00,
2013-11-17 03:52:00,68.8,63.8,29.45,South,178,3.0,3.0,84,0.00,,,0.00,Wunderground v.1.15,2013-11-17 09:52:00,
2013-11-17 03:54:00,68.9,63.9,29.45,SSE,163,3.0,3.0,84,0.00,,,0.00,Wunderground v.1.15,2013-11-17 09:54:00,
2013-11-17 04:00:00,68.8,63.8,29.45,SSE,148,3.0,13.0,84,0.00,,,0.00,Wunderground v.1.15,2013-11-17 10:00:00,
2013-11-17 04:06:00,68.9,63.9,29.45,SE,146,3.0,13.0,84,0.00,,,0.00,Wunderground v.1.15,2013-11-17 10:06:00,
2013-11-17 04:09:00,68.8,63.8,29.45,South,169,3.0,13.0,84,0.00,,,0.00,Wunderground v.1.15,2013-11-17 10:09:00,
2013-11-17 04:10:00,68.8,63.8,29.45,South,174,3.0,3.0,84,0.00,,,0.00,Wunderground v.1.15,2013-11-17 10:10:00,
2013-11-17 04:12:00,68.8,63.8,29.45,SSW,194,3.0,4.0,84,0.00,,,0.00,Wunderground v.1.15,2013-11-17 10:12:00,
2013-11-17 04:14:00,68.8,63.8,29.45,South,171,3.0,7.0,84,0.00,,,0.00,Wunderground v.1.15,2013-11-17 10:14:00,
2013-11-17 04:20:00,68.6,63.6,29.45,South,175,2.0,4.0,84,0.00,,,0.00,Wunderground v.1.15,2013-11-17 10:20:00,
2013-11-17 04:22:00,68.6,63.6,29.45,South,172,2.0,4.0,84,0.00,,,0.00,Wunderground v.1.15,2013-11-17 10:22:00,
2013-11-17 04:26:00,68.5,63.5,29.45,South,172,2.0,4.0,84,0.00,,,0.00,Wunderground v.1.15,2013-11-17 10:26:00,
2013-11-17 04:29:00,68.6,63.6,29.45,SSE,156,2.0,6.0,84,0.00,,,0.00,Wunderground v.1.15,2013-11-17 10:29:00,
2013-11-17 04:30:00,68.5,63.5,29.45,SSE,152,2.0,2.0,84,0.00,,,0.00,Wunderground v.1.15,2013-11-17 10:30:00,
2013-11-17 04:32:00,68.5,63.5,29.45,SE,146,2.0,2.0,84,0.00,,,0.00,Wunderground v.1.15,2013-11-17 10:32:00,
2013-11-17 04:36:00,68.5,63.5,29.45,South,187,2.0,4.0,84,0.00,,,0.00,Wunderground v.1.15,2013-11-17 10:36:00,
2013-11-17 04:39:00,68.5,63.5,29.45,South,172,2.0,4.0,84,0.00,,,0.00,Wunderground v.1.15,2013-11-17 10:39:00,
2013-11-17 04:44:00,68.4,63.4,29.45,South,175,2.0,5.0,84,0.00,,,0.00,Wunderground v.1.15,2013-11-17 10:44:00,
2013-11-17 04:46:00,68.5,63.1,29.45,SSW,196,2.0,5.0,83,0.00,,,0.00,Wunderground v.1.15,2013-11-17 10:46:00,
2013-11-17 04:50:00,68.5,63.1,29.45,SSE,165,3.0,3.0,83,0.00,,,0.00,Wunderground v.1.15,2013-11-17 10:50:00,
2013-11-17 04:52:00,68.4,63.0,29.45,South,175,3.0,4.0,83,0.00,,,0.00,Wunderground v.1.15,2013-11-17 10:52:00,
2013-11-17 04:59:00,68.5,63.1,29.45,South,169,3.0,6.0,83,0.00,,,0.00,Wunderground v.1.15,2013-11-17 10:59:00,
2013-11-17 05:00:00,68.5,63.1,29.45,South,171,3.0,3.0,83,0.00,,,0.00,Wunderground v.1.15,2013-11-17 11:00:00,
2013-11-17 05:04:00,68.5,63.1,29.45,South,180,3.0,5.0,83,0.00,,,0.00,Wunderground v.1.15,2013-11-17 11:04:00,
2013-11-17 05:06:00,68.4,63.0,29.45,SSE,167,3.0,9.0,83,0.00,,,0.00,Wunderground v.1.15,2013-11-17 11:06:00,
2013-11-17 05:10:00,68.5,63.1,29.45,SSE,167,3.0,4.0,83,0.00,,,0.00,Wunderground v.1.15,2013-11-17 11:10:00,
2013-11-17 05:12:00,68.5,63.1,29.45,South,184,3.0,4.0,83,0.00,,,0.00,Wunderground v.1.15,2013-11-17 11:12:00,
2013-11-17 05:14:00,68.5,63.1,29.45,South,178,3.0,4.0,83,0.00,,,0.00,Wunderground v.1.15,2013-11-17 11:14:00,
2013-11-17 05:16:00,68.5,63.1,29.45,South,174,3.0,4.0,83,0.00,,,0.00,Wunderground v.1.15,2013-11-17 11:16:00,
2013-11-17 05:19:00,68.4,63.0,29.45,SW,214,3.0,4.0,83,0.00,,,0.00,Wunderground v.1.15,2013-11-17 11:19:00,
2013-11-17 05:20:00,68.5,63.1,29.45,SSE,167,3.0,3.0,83,0.00,,,0.00,Wunderground v.1.15,2013-11-17 11:20:00,
2013-11-17 05:26:00,68.5,63.1,29.45,South,172,3.0,6.0,83,0.00,,,0.00,Wunderground v.1.15,2013-11-17 11:26:00,
2013-11-17 05:30:00,68.5,62.8,29.45,SSE,150,3.0,5.0,82,0.00,,,0.00,Wunderground v.1.15,2013-11-17 11:30:00,
2013-11-17 05:36:00,68.4,63.0,29.45,South,177,3.0,5.0,83,0.00,,,0.00,Wunderground v.1.15,2013-11-17 11:36:00,
2013-11-17 05:40:00,68.3,62.6,29.45,South,169,3.0,3.0,82,0.00,,,0.00,Wunderground v.1.15,2013-11-17 11:40:00,
2013-11-17 05:42:00,68.3,62.9,29.45,SSE,149,3.0,3.0,83,0.00,,,0.00,Wunderground v.1.15,2013-11-17 11:42:00,
2013-11-17 05:46:00,68.3,62.9,29.45,South,179,2.0,3.0,83,0.00,,,0.00,Wunderground v.1.15,2013-11-17 11:46:00,
2013-11-17 05:50:00,68.3,62.6,29.45,South,187,3.0,3.0,82,0.00,,,0.00,Wunderground v.1.15,2013-11-17 11:50:00,
2013-11-17 05:52:00,68.3,62.6,29.45,South,178,3.0,4.0,82,0.00,,,0.00,Wunderground v.1.15,2013-11-17 11:52:00,
2013-11-17 05:56:00,68.5,62.4,29.45,South,175,4.0,10.0,81,0.00,,,0.00,Wunderground v.1.15,2013-11-17 11:56:00,
2013-11-17 06:02:00,68.5,62.4,29.45,South,173,3.0,3.0,81,0.00,,,0.00,Wunderground v.1.15,2013-11-17 12:02:00,
2013-11-17 06:06:00,68.5,62.4,29.45,SW,221,3.0,5.0,81,0.00,,,0.00,Wunderground v.1.15,2013-11-17 12:06:00,
2013-11-17 06:08:00,68.4,62.3,29.46,South,173,2.0,5.0,81,0.00,,,0.00,Wunderground v.1.15,2013-11-17 12:08:00,
2013-11-17 06:10:00,68.3,62.2,29.46,South,171,2.0,2.0,81,0.00,,,0.00,Wunderground v.1.15,2013-11-17 12:10:00,
2013-11-17 06:12:00,68.2,62.1,29.46,SSW,209,2.0,2.0,81,0.00,,,0.00,Wunderground v.1.15,2013-11-17 12:12:00,
2013-11-17 06:14:00,68.2,62.1,29.46,South,175,2.0,4.0,81,0.00,,,0.00,Wunderground v.1.15,2013-11-17 12:14:00,
2013-11-17 06:16:00,68.2,62.1,29.46,SSW,193,2.0,5.0,81,0.00,,,0.00,Wunderground v.1.15,2013-11-17 12:16:00,
2013-11-17 06:20:00,68.3,61.9,29.46,SSE,161,3.0,3.0,80,0.00,,,0.00,Wunderground v.1.15,2013-11-17 12:20:00,
2013-11-17 06:22:00,68.2,61.8,29.46,SSE,163,2.0,3.0,80,0.00,,,0.00,Wunderground v.1.15,2013-11-17 12:22:00,
2013-11-17 06:24:00,68.2,61.8,29.47,WNW,289,2.0,4.0,80,0.00,,,0.00,Wunderground v.1.15,2013-11-17 12:24:00,
2013-11-17 06:26:00,68.1,61.7,29.47,SSE,164,2.0,4.0,80,0.00,,,0.00,Wunderground v.1.15,2013-11-17 12:26:00,
2013-11-17 06:29:00,68.1,61.7,29.47,SSE,150,2.0,4.0,80,0.00,,,0.00,Wunderground v.1.15,2013-11-17 12:29:00,
2013-11-17 06:32:00,68.0,61.6,29.47,SSE,161,2.0,2.0,80,0.00,,,0.00,Wunderground v.1.15,2013-11-17 12:32:00,
2013-11-17 06:34:00,68.0,61.2,29.47,SW,215,2.0,2.0,79,0.00,,,0.00,Wunderground v.1.15,2013-11-17 12:34:00,
2013-11-17 06:36:00,68.0,61.2,29.47,South,182,2.0,2.0,79,0.00,,,0.00,Wunderground v.1.15,2013-11-17 12:36:00,
2013-11-17 06:40:00,67.9,61.1,29.47,SSW,192,1.0,1.0,79,0.00,,,0.00,Wunderground v.1.15,2013-11-17 12:40:00,
2013-11-17 06:42:00,67.9,61.1,29.47,SSE,164,1.0,1.0,79,0.00,,,0.00,Wunderground v.1.15,2013-11-17 12:42:00,
2013-11-17 06:44:00,67.9,61.1,29.48,South,170,2.0,2.0,79,0.00,,,0.00,Wunderground v.1.15,2013-11-17 12:44:00,
2013-11-17 06:50:00,67.9,61.1,29.48,WSW,241,2.0,2.0,79,0.00,,,0.00,Wunderground v.1.15,2013-11-17 12:50:00,
2013-11-17 06:54:00,67.8,61.0,29.48,South,169,2.0,2.0,79,0.00,,,0.00,Wunderground v.1.15,2013-11-17 12:54:00,
2013-11-17 06:56:00,67.9,61.1,29.49,West,269,2.0,2.0,79,0.00,,,0.00,Wunderground v.1.15,2013-11-17 12:56:00,
2013-11-17 06:59:00,67.8,61.0,29.49,West,267,2.0,2.0,79,0.00,,,0.00,Wunderground v.1.15,2013-11-17 12:59:00,
2013-11-17 07:02:00,67.8,61.0,29.49,WSW,238,2.0,2.0,79,0.00,,,0.00,Wunderground v.1.15,2013-11-17 13:02:00,
2013-11-17 07:06:00,67.7,61.0,29.49,South,188,2.0,4.0,79,0.00,,,0.00,Wunderground v.1.15,2013-11-17 13:06:00,
2013-11-17 07:09:00,67.6,60.9,29.50,SSE,161,2.0,4.0,79,0.00,,,0.00,Wunderground v.1.15,2013-11-17 13:09:00,
2013-11-17 07:14:00,67.6,60.9,29.51,SW,221,3.0,3.0,79,0.00,,,0.00,Wunderground v.1.15,2013-11-17 13:14:00,
2013-11-17 07:16:00,67.6,60.9,29.51,SW,226,3.0,3.0,79,0.00,,,0.00,Wunderground v.1.15,2013-11-17 13:16:00,
2013-11-17 07:19:00,67.5,60.4,29.51,SSW,200,2.0,3.0,78,0.00,,,0.00,Wunderground v.1.15,2013-11-17 13:19:00,
2013-11-17 07:20:00,67.5,60.4,29.51,WNW,289,2.0,4.0,78,0.00,,,0.00,Wunderground v.1.15,2013-11-17 13:20:00,
2013-11-17 07:22:00,67.6,60.5,29.52,WNW,295,2.0,4.0,78,0.00,,,0.00,Wunderground v.1.15,2013-11-17 13:22:00,
2013-11-17 07:24:00,67.6,60.1,29.52,SW,234,3.0,4.0,77,0.00,,,0.00,Wunderground v.1.15,2013-11-17 13:24:00,
2013-11-17 07:29:00,67.8,60.0,29.52,SW,234,4.0,4.0,76,0.00,,,0.00,Wunderground v.1.15,2013-11-17 13:29:00,
2013-11-17 07:30:00,67.9,59.7,29.52,West,266,4.0,4.0,75,0.00,,,0.00,Wunderground v.1.15,2013-11-17 13:30:00,
2013-11-17 07:32:00,68.0,59.8,29.52,West,260,4.0,4.0,75,0.00,,,0.00,Wunderground v.1.15,2013-11-17 13:32:00,
2013-11-17 07:34:00,68.1,59.1,29.53,WSW,250,4.0,4.0,73,0.00,,,0.00,Wunderground v.1.15,2013-11-17 13:34:00,
2013-11-17 07:40:00,68.4,59.0,29.53,West,259,3.0,3.0,72,0.00,,,0.00,Wunderground v.1.15,2013-11-17 13:40:00,
2013-11-17 07:44:00,68.5,58.7,29.54,West,272,3.0,4.0,71,0.00,,,0.00,Wunderground v.1.15,2013-11-17 13:44:00,
2013-11-17 07:46:00,68.5,58.7,29.54,SW,225,3.0,4.0,71,0.00,,,0.00,Wunderground v.1.15,2013-11-17 13:46:00,
2013-11-17 07:49:00,68.5,58.3,29.54,West,267,4.0,4.0,70,0.00,,,0.00,Wunderground v.1.15,2013-11-17 13:49:00,
2013-11-17 07:50:00,68.6,58.4,29.54,West,271,4.0,5.0,70,0.00,,,0.00,Wunderground v.1.15,2013-11-17 13:50:00,
2013-11-17 07:54:00,68.6,58.4,29.55,West,277,3.0,5.0,70,0.00,,,0.00,Wunderground v.1.15,2013-11-17 13:54:00,
2013-11-17 07:56:00,68.6,58.0,29.55,NW,317,3.0,5.0,69,0.00,,,0.00,Wunderground v.1.15,2013-11-17 13:56:00,
2013-11-17 07:59:00,68.7,57.7,29.56,WSW,250,4.0,6.0,68,0.00,,,0.00,Wunderground v.1.15,2013-11-17 13:59:00,
2013-11-17 08:00:00,68.7,57.3,29.56,WSW,254,4.0,4.0,67,0.00,,,0.00,Wunderground v.1.15,2013-11-17 14:00:00,
2013-11-17 08:02:00,68.8,57.8,29.56,West,273,3.0,4.0,68,0.00,,,0.00,Wunderground v.1.15,2013-11-17 14:02:00,
2013-11-17 08:06:00,68.8,57.4,29.56,West,266,4.0,4.0,67,0.00,,,0.00,Wunderground v.1.15,2013-11-17 14:06:00,
2013-11-17 08:09:00,68.9,57.5,29.57,WNW,287,3.0,4.0,67,0.00,,,0.00,Wunderground v.1.15,2013-11-17 14:09:00,
2013-11-17 08:10:00,68.8,56.6,29.57,WSW,254,3.0,6.0,65,0.00,,,0.00,Wunderground v.1.15,2013-11-17 14:10:00,
2013-11-17 08:12:00,68.9,55.8,29.57,West,273,3.0,6.0,63,0.00,,,0.00,Wunderground v.1.15,2013-11-17 14:12:00,
2013-11-17 08:16:00,69.0,54.5,29.58,West,259,3.0,9.0,60,0.00,,,0.00,Wunderground v.1.15,2013-11-17 14:16:00,
2013-11-17 08:22:00,69.3,53.9,29.58,WNW,298,3.0,6.0,58,0.00,,,0.00,Wunderground v.1.15,2013-11-17 14:22:00,
2013-11-17 08:24:00,69.3,53.4,29.58,WSW,252,4.0,6.0,57,0.00,,,0.00,Wunderground v.1.15,2013-11-17 14:24:00,
2013-11-17 08:26:00,69.3,52.9,29.58,NW,306,4.0,7.0,56,0.00,,,0.00,Wunderground v.1.15,2013-11-17 14:26:00,
2013-11-17 08:29:00,69.3,51.9,29.59,West,277,5.0,11.0,54,0.00,,,0.00,Wunderground v.1.15,2013-11-17 14:29:00,
2013-11-17 08:32:00,69.2,49.8,29.59,WNW,290,6.0,7.0,50,0.00,,,0.00,Wunderground v.1.15,2013-11-17 14:32:00,
2013-11-17 08:34:00,69.2,49.8,29.59,NNW,336,7.0,17.0,50,0.00,,,0.00,Wunderground v.1.15,2013-11-17 14:34:00,
2013-11-17 08:36:00,69.1,49.7,29.59,NW,315,8.0,17.0,50,0.00,,,0.00,Wunderground v.1.15,2013-11-17 14:36:00,
2013-11-17 08:39:00,69.1,49.1,29.60,NNW,342,7.0,17.0,49,0.00,,,0.00,Wunderground v.1.15,2013-11-17 14:39:00,
2013-11-17 08:40:00,69.1,48.6,29.60,WNW,298,7.0,11.0,48,0.00,,,0.00,Wunderground v.1.15,2013-11-17 14:40:00,
2013-11-17 08:42:00,69.0,47.9,29.61,WNW,300,7.0,15.0,47,0.00,,,0.00,Wunderground v.1.15,2013-11-17 14:42:00,
2013-11-17 08:44:00,69.0,47.9,29.61,WNW,292,7.0,15.0,47,0.00,,,0.00,Wunderground v.1.15,2013-11-17 14:44:00,
2013-11-17 08:49:00,68.8,46.6,29.61,NW,317,8.0,15.0,45,0.00,,,0.00,Wunderground v.1.15,2013-11-17 14:49:00,
2013-11-17 08:52:00,68.6,45.2,29.61,WNW,282,8.0,15.0,43,0.00,,,0.00,Wunderground v.1.15,2013-11-17 14:52:00,
2013-11-17 08:54:00,68.5,45.1,29.62,WNW,288,7.0,15.0,43,0.00,,,0.00,Wunderground v.1.15,2013-11-17 14:54:00,
2013-11-17 08:59:00,68.2,44.8,29.62,WNW,296,6.0,15.0,43,0.00,,,0.00,Wunderground v.1.15,2013-11-17 14:59:00,
2013-11-17 09:00:00,68.2,44.8,29.62,NW,325,7.0,7.0,43,0.00,,,0.00,Wunderground v.1.15,2013-11-17 15:00:00,
2013-11-17 09:02:00,68.2,44.8,29.62,NW,308,6.0,9.0,43,0.00,,,0.00,Wunderground v.1.15,2013-11-17 15:02:00,
2013-11-17 09:04:00,68.1,44.7,29.63,WNW,303,6.0,9.0,43,0.00,,,0.00,Wunderground v.1.15,2013-11-17 15:04:00,
2013-11-17 09:06:00,68.1,44.7,29.64,NW,317,5.0,9.0,43,0.00,,,0.00,Wunderground v.1.15,2013-11-17 15:06:00,
2013-11-17 09:09:00,68.1,44.7,29.64,SW,227,6.0,12.0,43,0.00,,,0.00,Wunderground v.1.15,2013-11-17 15:09:00,
2013-11-17 09:12:00,68.0,44.0,29.64,WNW,290,7.0,10.0,42,0.00,,,0.00,Wunderground v.1.15,2013-11-17 15:12:00,
2013-11-17 09:14:00,67.9,44.6,29.64,NW,306,7.0,10.0,43,0.00,,,0.00,Wunderground v.1.15,2013-11-17 15:14:00,
2013-11-17 09:19:00,67.7,43.8,29.64,North,5,7.0,10.0,42,0.00,,,0.00,Wunderground v.1.15,2013-11-17 15:19:00,
2013-11-17 09:20:00,67.7,43.8,29.64,WNW,287,7.0,7.0,42,0.00,,,0.00,Wunderground v.1.15,2013-11-17 15:20:00,
2013-11-17 09:24:00,67.6,44.3,29.65,NNW,334,7.0,13.0,43,0.00,,,0.00,Wunderground v.1.15,2013-11-17 15:24:00,
2013-11-17 09:26:00,67.5,43.6,29.65,WNW,293,8.0,13.0,42,0.00,,,0.00,Wunderground v.1.15,2013-11-17 15:26:00,
2013-11-17 09:29:00,67.5,43.6,29.65,West,275,8.0,13.0,42,0.00,,,0.00,Wunderground v.1.15,2013-11-17 15:29:00,
2013-11-17 09:32:00,67.4,43.5,29.65,WNW,298,7.0,7.0,42,0.00,,,0.00,Wunderground v.1.15,2013-11-17 15:32:00,
2013-11-17 09:36:00,67.4,43.5,29.66,NW,308,5.0,7.0,42,0.00,,,0.00,Wunderground v.1.15,2013-11-17 15:36:00,
2013-11-17 09:39:00,67.2,42.0,29.66,NW,309,6.0,7.0,40,0.00,,,0.00,Wunderground v.1.15,2013-11-17 15:39:00,
2013-11-17 09:40:00,67.0,41.9,29.66,NW,304,6.0,10.0,40,0.00,,,0.00,Wunderground v.1.15,2013-11-17 15:40:00,
2013-11-17 09:44:00,66.6,41.5,29.67,NNW,330,6.0,10.0,40,0.00,,,0.00,Wunderground v.1.15,2013-11-17 15:44:00,
2013-11-17 09:46:00,66.5,40.8,29.67,NW,321,6.0,10.0,39,0.00,,,0.00,Wunderground v.1.15,2013-11-17 15:46:00,
2013-11-17 09:49:00,66.3,40.6,29.67,WNW,300,6.0,10.0,39,0.00,,,0.00,Wunderground v.1.15,2013-11-17 15:49:00,
2013-11-17 09:50:00,66.2,40.5,29.67,NW,318,6.0,6.0,39,0.00,,,0.00,Wunderground v.1.15,2013-11-17 15:50:00,
2013-11-17 09:56:00,65.8,38.8,29.68,NW,306,6.0,7.0,37,0.00,,,0.00,Wunderground v.1.15,2013-11-17 15:56:00,
2013-11-17 09:59:00,65.8,39.5,29.68,NNW,345,6.0,7.0,38,0.00,,,0.00,Wunderground v.1.15,2013-11-17 15:59:00,
2013-11-17 10:02:00,66.0,39.7,29.68,NW,306,5.0,8.0,38,0.00,,,0.00,Wunderground v.1.15,2013-11-17 16:02:00,
2013-11-17 10:04:00,66.0,39.7,29.69,WNW,297,5.0,8.0,38,0.00,,,0.00,Wunderground v.1.15,2013-11-17 16:04:00,
2013-11-17 10:09:00,66.0,39.0,29.69,NNW,327,5.0,8.0,37,0.00,,,0.00,Wunderground v.1.15,2013-11-17 16:09:00,
2013-11-17 10:10:00,66.1,39.1,29.69,NNW,346,5.0,5.0,37,0.00,,,0.00,Wunderground v.1.15,2013-11-17 16:10:00,
2013-11-17 10:12:00,66.1,39.1,29.69,NNW,334,5.0,16.0,37,0.00,,,0.00,Wunderground v.1.15,2013-11-17 16:12:00,
2013-11-17 10:14:00,66.0,39.0,29.69,NNW,336,6.0,16.0,37,0.00,,,0.00,Wunderground v.1.15,2013-11-17 16:14:00,
2013-11-17 10:16:00,65.8,38.8,29.69,North,10,7.0,16.0,37,0.00,,,0.00,Wunderground v.1.15,2013-11-17 16:16:00,
2013-11-17 10:22:00,65.8,38.8,29.70,North,351,8.0,9.0,37,0.00,,,0.00,Wunderground v.1.15,2013-11-17 16:22:00,
2013-11-17 10:24:00,65.9,39.6,29.70,NNW,346,7.0,9.0,38,0.00,,,0.00,Wunderground v.1.15,2013-11-17 16:24:00,
2013-11-17 10:26:00,65.9,39.6,29.70,NNW,335,7.0,9.0,38,0.00,,,0.00,Wunderground v.1.15,2013-11-17 16:26:00,
2013-11-17 10:32:00,66.3,39.9,29.70,NW,316,5.0,5.0,38,0.00,,,0.00,Wunderground v.1.15,2013-11-17 16:32:00,
2013-11-17 10:34:00,66.4,40.0,29.70,NNW,331,4.0,5.0,38,0.00,,,0.00,Wunderground v.1.15,2013-11-17 16:34:00,
2013-11-17 10:36:00,66.5,40.1,29.70,WNW,300,4.0,5.0,38,0.00,,,0.00,Wunderground v.1.15,2013-11-17 16:36:00,
2013-11-17 10:40:00,66.6,39.5,29.70,NNW,334,5.0,5.0,37,0.00,,,0.00,Wunderground v.1.15,2013-11-17 16:40:00,
2013-11-17 10:42:00,66.7,39.6,29.70,NNW,340,4.0,7.0,37,0.00,,,0.00,Wunderground v.1.15,2013-11-17 16:42:00,
2013-11-17 10:44:00,66.7,40.3,29.70,NNW,342,5.0,7.0,38,0.00,,,0.00,Wunderground v.1.15,2013-11-17 16:44:00,
2013-11-17 10:49:00,66.8,40.4,29.71,NNW,330,4.0,7.0,38,0.00,,,0.00,Wunderground v.1.15,2013-11-17 16:49:00,
2013-11-17 10:50:00,66.9,40.5,29.71,NW,325,4.0,4.0,38,0.00,,,0.00,Wunderground v.1.15,2013-11-17 16:50:00,
2013-11-17 10:52:00,67.0,39.9,29.70,NW,315,4.0,5.0,37,0.00,,,0.00,Wunderground v.1.15,2013-11-17 16:52:00,
2013-11-17 10:56:00,67.3,40.1,29.71,NNW,335,3.0,5.0,37,0.00,,,0.00,Wunderground v.1.15,2013-11-17 16:56:00,
2013-11-17 10:59:00,67.5,40.3,29.71,NNE,19,3.0,5.0,37,0.00,,,0.00,Wunderground v.1.15,2013-11-17 16:59:00,
2013-11-17 11:00:00,67.6,39.7,29.71,NNW,345,3.0,4.0,36,0.00,,,0.00,Wunderground v.1.15,2013-11-17 17:00:00,
2013-11-17 11:02:00,67.6,39.7,29.71,North,350,4.0,4.0,36,0.00,,,0.00,Wunderground v.1.15,2013-11-17 17:02:00,
2013-11-17 11:09:00,67.9,39.9,29.71,North,350,3.0,4.0,36,0.00,,,0.00,Wunderground v.1.15,2013-11-17 17:09:00,
2013-11-17 11:12:00,68.0,40.0,29.71,NNW,327,4.0,4.0,36,0.00,,,0.00,Wunderground v.1.15,2013-11-17 17:12:00,
2013-11-17 11:14:00,68.0,40.0,29.71,NW,312,4.0,5.0,36,0.00,,,0.00,Wunderground v.1.15,2013-11-17 17:14:00,
2013-11-17 11:16:00,68.0,39.3,29.71,NW,319,4.0,5.0,35,0.00,,,0.00,Wunderground v.1.15,2013-11-17 17:16:00,
2013-11-17 11:19:00,68.0,39.3,29.71,WNW,290,4.0,5.0,35,0.00,,,0.00,Wunderground v.1.15,2013-11-17 17:19:00,
2013-11-17 11:22:00,68.1,39.4,29.72,NW,321,4.0,5.0,35,0.00,,,0.00,Wunderground v.1.15,2013-11-17 17:22:00,
2013-11-17 11:24:00,68.1,38.7,29.72,NW,319,5.0,9.0,34,0.00,,,0.00,Wunderground v.1.15,2013-11-17 17:24:00,
2013-11-17 11:26:00,68.0,38.6,29.71,NNE,18,5.0,9.0,34,0.00,,,0.00,Wunderground v.1.15,2013-11-17 17:26:00,
2013-11-17 11:30:00,68.3,39.6,29.72,NNW,344,4.0,9.0,35,0.00,,,0.00,Wunderground v.1.15,2013-11-17 17:30:00,
2013-11-17 11:32:00,68.3,38.1,29.72,NNW,329,5.0,9.0,33,0.00,,,0.00,Wunderground v.1.15,2013-11-17 17:32:00,
2013-11-17 11:34:00,68.2,38.0,29.72,NNW,337,5.0,9.0,33,0.00,,,0.00,Wunderground v.1.15,2013-11-17 17:34:00,
2013-11-17 11:36:00,68.2,38.7,29.72,North,351,5.0,9.0,34,0.00,,,0.00,Wunderground v.1.15,2013-11-17 17:36:00,
2013-11-17 11:39:00,68.3,38.8,29.71,North,9,5.0,9.0,34,0.00,,,0.00,Wunderground v.1.15,2013-11-17 17:39:00,
2013-11-17 11:40:00,68.5,38.2,29.72,NNW,329,5.0,5.0,33,0.00,,,0.00,Wunderground v.1.15,2013-11-17 17:40:00,
2013-11-17 11:44:00,68.8,38.5,29.71,NNW,327,4.0,5.0,33,0.00,,,0.00,Wunderground v.1.15,2013-11-17 17:44:00,
2013-11-17 11:46:00,68.9,38.6,29.71,NNE,16,4.0,5.0,33,0.00,,,0.00,Wunderground v.1.15,2013-11-17 17:46:00,
2013-11-17 11:49:00,69.2,38.1,29.71,NNE,30,4.0,7.0,32,0.00,,,0.00,Wunderground v.1.15,2013-11-17 17:49:00,
2013-11-17 11:52:00,69.3,38.2,29.72,NNE,29,4.0,10.0,32,0.00,,,0.00,Wunderground v.1.15,2013-11-17 17:52:00,
2013-11-17 11:54:00,69.2,38.1,29.71,NNW,338,5.0,10.0,32,0.00,,,0.00,Wunderground v.1.15,2013-11-17 17:54:00,
2013-11-17 11:56:00,69.2,38.1,29.71,NW,313,5.0,10.0,32,0.00,,,0.00,Wunderground v.1.15,2013-11-17 17:56:00,
2013-11-17 12:00:00,69.4,38.2,29.71,North,360,4.0,4.0,32,0.00,,,0.00,Wunderground v.1.15,2013-11-17 18:00:00,
2013-11-17 12:04:00,69.8,38.6,29.71,NNW,341,4.0,7.0,32,0.00,,,0.00,Wunderground v.1.15,2013-11-17 18:04:00,
2013-11-17 12:06:00,69.9,38.7,29.71,WNW,298,3.0,7.0,32,0.00,,,0.00,Wunderground v.1.15,2013-11-17 18:06:00,
2013-11-17 12:09:00,70.1,38.9,29.72,NNW,331,3.0,7.0,32,0.00,,,0.00,Wunderground v.1.15,2013-11-17 18:09:00,
2013-11-17 12:12:00,70.2,38.1,29.72,NNW,328,3.0,8.0,31,0.00,,,0.00,Wunderground v.1.15,2013-11-17 18:12:00,
2013-11-17 12:14:00,70.2,38.1,29.72,NNW,336,4.0,8.0,31,0.00,,,0.00,Wunderground v.1.15,2013-11-17 18:14:00,
2013-11-17 12:16:00,70.1,37.2,29.72,NNW,345,4.0,8.0,30,0.00,,,0.00,Wunderground v.1.15,2013-11-17 18:16:00,
2013-11-17 12:19:00,70.1,38.0,29.72,North,350,4.0,8.0,31,0.00,,,0.00,Wunderground v.1.15,2013-11-17 18:19:00,
2013-11-17 12:22:00,70.2,37.3,29.72,NNW,346,4.0,7.0,30,0.00,,,0.00,Wunderground v.1.15,2013-11-17 18:22:00,
2013-11-17 12:26:00,70.2,37.3,29.72,NNW,331,4.0,9.0,30,0.00,,,0.00,Wunderground v.1.15,2013-11-17 18:26:00,
2013-11-17 12:29:00,70.3,36.5,29.72,North,9,4.0,9.0,29,0.00,,,0.00,Wunderground v.1.15,2013-11-17 18:29:00,
2013-11-17 12:34:00,70.5,36.7,29.72,NNW,343,5.0,7.0,29,0.00,,,0.00,Wunderground v.1.15,2013-11-17 18:34:00,
2013-11-17 12:36:00,70.6,36.8,29.72,North,9,5.0,7.0,29,0.00,,,0.00,Wunderground v.1.15,2013-11-17 18:36:00,
2013-11-17 12:40:00,70.9,35.2,29.72,NNW,338,4.0,9.0,27,0.00,,,0.00,Wunderground v.1.15,2013-11-17 18:40:00,
2013-11-17 12:42:00,71.0,35.3,29.72,NNE,20,4.0,9.0,27,0.00,,,0.00,Wunderground v.1.15,2013-11-17 18:42:00,
2013-11-17 12:44:00,71.0,35.3,29.72,North,5,4.0,9.0,27,0.00,,,0.00,Wunderground v.1.15,2013-11-17 18:44:00,
2013-11-17 12:49:00,71.3,35.6,29.72,NNW,337,4.0,9.0,27,0.00,,,0.00,Wunderground v.1.15,2013-11-17 18:49:00,
2013-11-17 12:50:00,71.2,35.5,29.72,North,9,4.0,4.0,27,0.00,,,0.00,Wunderground v.1.15,2013-11-17 18:50:00,
2013-11-17 12:52:00,71.2,35.5,29.72,NNE,25,4.0,6.0,27,0.00,,,0.00,Wunderground v.1.15,2013-11-17 18:52:00,
2013-11-17 12:59:00,71.0,35.3,29.72,NNW,335,5.0,8.0,27,0.00,,,0.00,Wunderground v.1.15,2013-11-17 18:59:00,
2013-11-17 13:00:00,71.0,35.3,29.72,North,360,5.0,5.0,27,0.00,,,0.00,Wunderground v.1.15,2013-11-17 19:00:00,
2013-11-17 13:02:00,71.0,35.3,29.72,North,9,5.0,5.0,27,0.00,,,0.00,Wunderground v.1.15,2013-11-17 19:02:00,
2013-11-17 13:04:00,71.1,35.4,29.72,NNE,26,5.0,6.0,27,0.00,,,0.00,Wunderground v.1.15,2013-11-17 19:04:00,
2013-11-17 13:06:00,71.2,36.4,29.72,North,355,6.0,6.0,28,0.00,,,0.00,Wunderground v.1.15,2013-11-17 19:06:00,
2013-11-17 13:12:00,71.2,36.4,29.72,NNW,342,5.0,5.0,28,0.00,,,0.00,Wunderground v.1.15,2013-11-17 19:12:00,
2013-11-17 13:14:00,71.3,35.6,29.72,NNW,344,5.0,5.0,27,0.00,,,0.00,Wunderground v.1.15,2013-11-17 19:14:00,
2013-11-17 13:16:00,71.2,36.4,29.72,North,360,5.0,5.0,28,0.00,,,0.00,Wunderground v.1.15,2013-11-17 19:16:00,
2013-11-17 13:19:00,71.2,35.5,29.72,NNW,346,4.0,5.0,27,0.00,,,0.00,Wunderground v.1.15,2013-11-17 19:19:00,
2013-11-17 13:20:00,71.3,36.5,29.72,NNW,329,4.0,4.0,28,0.00,,,0.00,Wunderground v.1.15,2013-11-17 19:20:00,
2013-11-17 13:24:00,71.5,35.7,29.73,NNW,331,4.0,11.0,27,0.00,,,0.00,Wunderground v.1.15,2013-11-17 19:24:00,
2013-11-17 13:26:00,71.4,34.7,29.73,NNW,348,5.0,11.0,26,0.00,,,0.00,Wunderground v.1.15,2013-11-17 19:26:00,
2013-11-17 13:29:00,71.3,35.6,29.73,NW,317,4.0,11.0,27,0.00,,,0.00,Wunderground v.1.15,2013-11-17 19:29:00,
2013-11-17 13:32:00,71.3,34.6,29.73,NW,317,3.0,4.0,26,0.00,,,0.00,Wunderground v.1.15,2013-11-17 19:32:00,
2013-11-17 13:34:00,71.3,34.6,29.73,NW,319,3.0,4.0,26,0.00,,,0.00,Wunderground v.1.15,2013-11-17 19:34:00,
2013-11-17 13:36:00,71.3,34.6,29.73,NNW,337,2.0,4.0,26,0.00,,,0.00,Wunderground v.1.15,2013-11-17 19:36:00,
2013-11-17 13:39:00,71.3,34.6,29.73,NW,317,3.0,4.0,26,0.00,,,0.00,Wunderground v.1.15,2013-11-17 19:39:00,
2013-11-17 13:42:00,71.3,34.6,29.73,NW,310,4.0,4.0,26,0.00,,,0.00,Wunderground v.1.15,2013-11-17 19:42:00,
2013-11-17 13:44:00,71.3,35.6,29.73,NNE,22,4.0,5.0,27,0.00,,,0.00,Wunderground v.1.15,2013-11-17 19:44:00,
2013-11-17 13:46:00,71.4,35.7,29.73,NNE,21,4.0,14.0,27,0.00,,,0.00,Wunderground v.1.15,2013-11-17 19:46:00,
2013-11-17 13:50:00,71.4,33.7,29.73,NW,312,5.0,5.0,25,0.00,,,0.00,Wunderground v.1.15,2013-11-17 19:50:00,
2013-11-17 13:52:00,71.5,33.8,29.73,NNW,327,5.0,5.0,25,0.00,,,0.00,Wunderground v.1.15,2013-11-17 19:52:00,
2013-11-17 13:54:00,71.5,33.8,29.74,NW,315,5.0,5.0,25,0.00,,,0.00,Wunderground v.1.15,2013-11-17 19:54:00,
2013-11-17 13:56:00,71.6,33.9,29.74,NNW,332,5.0,5.0,25,0.00,,,0.00,Wunderground v.1.15,2013-11-17 19:56:00,
2013-11-17 14:00:00,71.6,33.9,29.74,NNW,345,4.0,9.0,25,0.00,,,0.00,Wunderground v.1.15,2013-11-17 20:00:00,
2013-11-17 14:02:00,71.5,33.8,29.74,NNW,331,4.0,9.0,25,0.00,,,0.00,Wunderground v.1.15,2013-11-17 20:02:00,
2013-11-17 14:04:00,71.4,34.7,29.74,NW,323,5.0,9.0,26,0.00,,,0.00,Wunderground v.1.15,2013-11-17 20:04:00,
2013-11-17 14:10:00,71.4,33.7,29.74,NW,311,6.0,12.0,25,0.00,,,0.00,Wunderground v.1.15,2013-11-17 20:10:00,
2013-11-17 14:14:00,71.3,33.6,29.74,NW,321,6.0,12.0,25,0.00,,,0.00,Wunderground v.1.15,2013-11-17 20:14:00,
2013-11-17 14:16:00,71.2,33.6,29.74,NW,314,6.0,12.0,25,0.00,,,0.00,Wunderground v.1.15,2013-11-17 20:16:00,
2013-11-17 14:19:00,71.1,34.5,29.74,NNE,18,6.0,12.0,26,0.00,,,0.00,Wunderground v.1.15,2013-11-17 20:19:00,
2013-11-17 14:20:00,71.1,34.5,29.74,North,355,6.0,6.0,26,0.00,,,0.00,Wunderground v.1.15,2013-11-17 20:20:00,
2013-11-17 14:26:00,71.3,33.6,29.75,WNW,302,4.0,6.0,25,0.00,,,0.00,Wunderground v.1.15,2013-11-17 20:26:00,
2013-11-17 14:29:00,71.2,34.5,29.75,NNW,329,4.0,6.0,26,0.00,,,0.00,Wunderground v.1.15,2013-11-17 20:29:00,
2013-11-17 14:30:00,71.2,34.5,29.75,NNW,339,4.0,5.0,26,0.00,,,0.00,Wunderground v.1.15,2013-11-17 20:30:00,
2013-11-17 14:34:00,71.3,34.6,29.75,NW,312,4.0,5.0,26,0.00,,,0.00,Wunderground v.1.15,2013-11-17 20:34:00,
2013-11-17 14:36:00,71.3,33.6,29.75,NW,307,4.0,5.0,25,0.00,,,0.00,Wunderground v.1.15,2013-11-17 20:36:00,
2013-11-17 14:40:00,71.2,34.5,29.75,NW,306,4.0,4.0,26,0.00,,,0.00,Wunderground v.1.15,2013-11-17 20:40:00,
2013-11-17 14:42:00,71.3,34.6,29.75,NW,306,3.0,5.0,26,0.00,,,0.00,Wunderground v.1.15,2013-11-17 20:42:00,
2013-11-17 14:46:00,71.3,33.6,29.75,NW,315,3.0,5.0,25,0.00,,,0.00,Wunderground v.1.15,2013-11-17 20:46:00,
2013-11-17 14:49:00,71.3,34.6,29.76,NNW,328,3.0,5.0,26,0.00,,,0.00,Wunderground v.1.15,2013-11-17 20:49:00,
2013-11-17 14:50:00,71.3,34.6,29.76,WNW,283,3.0,5.0,26,0.00,,,0.00,Wunderground v.1.15,2013-11-17 20:50:00,
2013-11-17 14:52:00,71.3,34.6,29.76,NW,315,4.0,6.0,26,0.00,,,0.00,Wunderground v.1.15,2013-11-17 20:52:00,
2013-11-17 14:54:00,71.3,34.6,29.76,NNW,338,4.0,6.0,26,0.00,,,0.00,Wunderground v.1.15,2013-11-17 20:54:00,
2013-11-17 14:56:00,71.3,34.6,29.76,North,11,4.0,8.0,26,0.00,,,0.00,Wunderground v.1.15,2013-11-17 20:56:00,
2013-11-17 15:00:00,71.3,34.6,29.76,NNW,346,5.0,11.0,26,0.00,,,0.00,Wunderground v.1.15,2013-11-17 21:00:00,
2013-11-17 15:02:00,71.1,34.5,29.76,North,360,5.0,11.0,26,0.00,,,0.00,Wunderground v.1.15,2013-11-17 21:02:00,
2013-11-17 15:06:00,71.1,35.4,29.76,NNW,338,4.0,11.0,27,0.00,,,0.00,Wunderground v.1.15,2013-11-17 21:06:00,
2013-11-17 15:09:00,71.2,35.5,29.76,NW,314,3.0,11.0,27,0.00,,,0.00,Wunderground v.1.15,2013-11-17 21:09:00,
2013-11-17 15:12:00,71.2,35.5,29.77,WNW,284,2.0,3.0,27,0.00,,,0.00,Wunderground v.1.15,2013-11-17 21:12:00,
2013-11-17 15:14:00,71.3,35.6,29.77,NW,317,2.0,3.0,27,0.00,,,0.00,Wunderground v.1.15,2013-11-17 21:14:00,
2013-11-17 15:16:00,71.3,34.6,29.77,NW,311,3.0,4.0,26,0.00,,,0.00,Wunderground v.1.15,2013-11-17 21:16:00,
2013-11-17 15:19:00,71.3,34.6,29.77,West,281,3.0,4.0,26,0.00,,,0.00,Wunderground v.1.15,2013-11-17 21:19:00,
2013-11-17 15:22:00,71.2,34.5,29.77,WNW,303,4.0,6.0,26,0.00,,,0.00,Wunderground v.1.15,2013-11-17 21:22:00,
2013-11-17 15:24:00,71.2,34.5,29.77,NW,307,4.0,6.0,26,0.00,,,0.00,Wunderground v.1.15,2013-11-17 21:24:00,
2013-11-17 15:26:00,71.2,34.5,29.77,NW,318,4.0,6.0,26,0.00,,,0.00,Wunderground v.1.15,2013-11-17 21:26:00,
2013-11-17 15:29:00,71.2,34.5,29.77,NW,321,4.0,6.0,26,0.00,,,0.00,Wunderground v.1.15,2013-11-17 21:29:00,
2013-11-17 15:32:00,71.1,34.5,29.78,WNW,292,5.0,10.0,26,0.00,,,0.00,Wunderground v.1.15,2013-11-17 21:32:00,
2013-11-17 15:34:00,71.0,34.4,29.78,North,355,4.0,10.0,26,0.00,,,0.00,Wunderground v.1.15,2013-11-17 21:34:00,
2013-11-17 15:40:00,71.0,33.4,29.78,NNW,341,4.0,7.0,25,0.00,,,0.00,Wunderground v.1.15,2013-11-17 21:40:00,
2013-11-17 15:42:00,71.1,33.5,29.78,NW,324,4.0,7.0,25,0.00,,,0.00,Wunderground v.1.15,2013-11-17 21:42:00,
2013-11-17 15:44:00,71.2,33.6,29.78,WNW,296,4.0,7.0,25,0.00,,,0.00,Wunderground v.1.15,2013-11-17 21:44:00,
2013-11-17 15:49:00,71.3,33.6,29.79,North,11,5.0,9.0,25,0.00,,,0.00,Wunderground v.1.15,2013-11-17 21:49:00,
2013-11-17 15:50:00,71.3,32.6,29.79,NNW,340,5.0,5.0,24,0.00,,,0.00,Wunderground v.1.15,2013-11-17 21:50:00,
2013-11-17 15:52:00,71.3,33.6,29.78,NNW,333,5.0,5.0,25,0.00,,,0.00,Wunderground v.1.15,2013-11-17 21:52:00,
2013-11-17 15:56:00,71.3,33.6,29.79,NW,317,3.0,5.0,25,0.00,,,0.00,Wunderground v.1.15,2013-11-17 21:56:00,
2013-11-17 15:59:00,71.4,30.5,29.78,NW,311,4.0,9.0,22,0.00,,,0.00,Wunderground v.1.15,2013-11-17 21:59:00,
2013-11-17 16:00:00,71.4,30.5,29.79,NNW,329,4.0,6.0,22,0.00,,,0.00,Wunderground v.1.15,2013-11-17 22:00:00,
2013-11-17 16:02:00,71.3,30.5,29.79,NNW,345,4.0,6.0,22,0.00,,,0.00,Wunderground v.1.15,2013-11-17 22:02:00,
2013-11-17 16:04:00,71.3,31.6,29.79,North,355,4.0,6.0,23,0.00,,,0.00,Wunderground v.1.15,2013-11-17 22:04:00,
2013-11-17 16:10:00,71.2,30.4,29.79,NNW,331,4.0,4.0,22,0.00,,,0.00,Wunderground v.1.15,2013-11-17 22:10:00,
2013-11-17 16:12:00,71.1,30.3,29.80,NNW,340,5.0,5.0,22,0.00,,,0.00,Wunderground v.1.15,2013-11-17 22:12:00,
2013-11-17 16:16:00,70.9,30.1,29.80,NW,316,6.0,9.0,22,0.00,,,0.00,Wunderground v.1.15,2013-11-17 22:16:00,
2013-11-17 16:19:00,70.7,30.0,29.80,NW,304,6.0,9.0,22,0.00,,,0.00,Wunderground v.1.15,2013-11-17 22:19:00,
2013-11-17 16:20:00,70.6,29.9,29.80,NW,315,6.0,6.0,22,0.00,,,0.00,Wunderground v.1.15,2013-11-17 22:20:00,
2013-11-17 16:22:00,70.6,31.0,29.80,NNW,334,6.0,6.0,23,0.00,,,0.00,Wunderground v.1.15,2013-11-17 22:22:00,
2013-11-17 16:24:00,70.5,30.9,29.80,NNW,338,6.0,7.0,23,0.00,,,0.00,Wunderground v.1.15,2013-11-17 22:24:00,
2013-11-17 16:26:00,70.4,30.8,29.80,NNW,335,5.0,7.0,23,0.00,,,0.00,Wunderground v.1.15,2013-11-17 22:26:00,
2013-11-17 16:29:00,70.3,30.7,29.80,NW,323,5.0,7.0,23,0.00,,,0.00,Wunderground v.1.15,2013-11-17 22:29:00,
2013-11-17 16:30:00,70.2,31.7,29.80,NW,322,5.0,5.0,24,0.00,,,0.00,Wunderground v.1.15,2013-11-17 22:30:00,
2013-11-17 16:32:00,70.1,31.6,29.81,NW,318,5.0,5.0,24,0.00,,,0.00,Wunderground v.1.15,2013-11-17 22:32:00,
2013-11-17 16:36:00,69.9,31.4,29.81,NW,326,4.0,6.0,24,0.00,,,0.00,Wunderground v.1.15,2013-11-17 22:36:00,
2013-11-17 16:42:00,69.6,32.2,29.81,NW,313,4.0,6.0,25,0.00,,,0.00,Wunderground v.1.15,2013-11-17 22:42:00,
2013-11-17 16:44:00,69.4,32.0,29.82,NNW,329,4.0,9.0,25,0.00,,,0.00,Wunderground v.1.15,2013-11-17 22:44:00,
2013-11-17 16:49:00,69.1,32.7,29.82,NNW,346,6.0,9.0,26,0.00,,,0.00,Wunderground v.1.15,2013-11-17 22:49:00,
2013-11-17 16:50:00,69.0,32.7,29.83,NNW,348,6.0,7.0,26,0.00,,,0.00,Wunderground v.1.15,2013-11-17 22:50:00,
2013-11-17 16:52:00,68.8,32.5,29.83,NNW,338,6.0,7.0,26,0.00,,,0.00,Wunderground v.1.15,2013-11-17 22:52:00,
2013-11-17 16:54:00,68.7,32.4,29.83,NW,319,6.0,7.0,26,0.00,,,0.00,Wunderground v.1.15,2013-11-17 22:54:00,
2013-11-17 16:56:00,68.6,33.3,29.83,NNE,16,5.0,10.0,27,0.00,,,0.00,Wunderground v.1.15,2013-11-17 22:56:00,
2013-11-17 17:00:00,68.3,33.0,29.83,NNW,328,5.0,10.0,27,0.00,,,0.00,Wunderground v.1.15,2013-11-17 23:00:00,
2013-11-17 17:02:00,68.1,32.8,29.83,NNW,338,4.0,10.0,27,0.00,,,0.00,Wunderground v.1.15,2013-11-17 23:02:00,
2013-11-17 17:04:00,68.0,32.7,29.83,NNW,344,4.0,10.0,27,0.00,,,0.00,Wunderground v.1.15,2013-11-17 23:04:00,
2013-11-17 17:06:00,67.9,32.7,29.83,NW,316,5.0,10.0,27,0.00,,,0.00,Wunderground v.1.15,2013-11-17 23:06:00,
2013-11-17 17:09:00,67.7,32.5,29.83,NNW,337,5.0,10.0,27,0.00,,,0.00,Wunderground v.1.15,2013-11-17 23:09:00,
2013-11-17 17:10:00,67.7,32.5,29.84,NNW,342,5.0,6.0,27,0.00,,,0.00,Wunderground v.1.15,2013-11-17 23:10:00,
2013-11-17 17:14:00,67.5,32.3,29.84,North,360,5.0,6.0,27,0.00,,,0.00,Wunderground v.1.15,2013-11-17 23:14:00,
2013-11-17 17:16:00,67.4,32.2,29.84,NW,320,5.0,6.0,27,0.00,,,0.00,Wunderground v.1.15,2013-11-17 23:16:00,
2013-11-17 17:22:00,67.1,32.0,29.84,NNW,338,5.0,7.0,27,0.00,,,0.00,Wunderground v.1.15,2013-11-17 23:22:00,
2013-11-17 17:24:00,67.0,32.8,29.84,NNW,337,5.0,7.0,28,0.00,,,0.00,Wunderground v.1.15,2013-11-17 23:24:00,
2013-11-17 17:26:00,66.9,32.7,29.85,NW,317,5.0,7.0,28,0.00,,,0.00,Wunderground v.1.15,2013-11-17 23:26:00,
2013-11-17 17:30:00,66.7,32.5,29.85,NW,319,4.0,4.0,28,0.00,,,0.00,Wunderground v.1.15,2013-11-17 23:30:00,
2013-11-17 17:32:00,66.5,32.4,29.85,NW,325,3.0,4.0,28,0.00,,,0.00,Wunderground v.1.15,2013-11-17 23:32:00,
2013-11-17 17:36:00,66.3,32.2,29.86,NW,317,3.0,4.0,28,0.00,,,0.00,Wunderground v.1.15,2013-11-17 23:36:00,
2013-11-17 17:39:00,66.2,32.1,29.86,NNW,334,3.0,4.0,28,0.00,,,0.00,Wunderground v.1.15,2013-11-17 23:39:00,
2013-11-17 17:40:00,66.2,32.1,29.86,NNW,334,3.0,3.0,28,0.00,,,0.00,Wunderground v.1.15,2013-11-17 23:40:00,
2013-11-17 17:42:00,66.1,32.0,29.86,NNW,329,3.0,3.0,28,0.00,,,0.00,Wunderground v.1.15,2013-11-17 23:42:00,
2013-11-17 17:44:00,66.0,31.9,29.86,NNW,329,3.0,3.0,28,0.00,,,0.00,Wunderground v.1.15,2013-11-17 23:44:00,
2013-11-17 17:46:00,65.9,31.8,29.86,NNW,333,2.0,3.0,28,0.00,,,0.00,Wunderground v.1.15,2013-11-17 23:46:00,
2013-11-17 17:49:00,65.7,32.5,29.86,NNW,333,2.0,3.0,29,0.00,,,0.00,Wunderground v.1.15,2013-11-17 23:49:00,
2013-11-17 17:50:00,65.7,32.5,29.86,NNW,333,2.0,2.0,29,0.00,,,0.00,Wunderground v.1.15,2013-11-17 23:50:00,
2013-11-17 17:54:00,65.4,32.3,29.87,NNW,333,1.0,2.0,29,0.00,,,0.00,Wunderground v.1.15,2013-11-17 23:54:00,
2013-11-17 17:59:00,65.2,32.1,29.87,NNW,333,1.0,2.0,29,0.00,,,0.00,Wunderground v.1.15,2013-11-17 23:59:00,
2013-11-17 18:00:00,65.1,32.0,29.87,NNW,333,1.0,2.0,29,0.00,,,0.00,Wunderground v.1.15,2013-11-18 00:00:00,
2013-11-17 18:02:00,65.0,31.9,29.87,NNW,334,1.0,2.0,29,0.00,,,0.00,Wunderground v.1.15,2013-11-18 00:02:00,
2013-11-17 18:06:00,64.9,31.9,29.87,NNW,340,2.0,2.0,29,0.00,,,0.00,Wunderground v.1.15,2013-11-18 00:06:00,
2013-11-17 18:12:00,64.6,31.6,29.88,NNW,342,2.0,2.0,29,0.00,,,0.00,Wunderground v.1.15,2013-11-18 00:12:00,
2013-11-17 18:14:00,64.5,32.4,29.88,NNW,344,2.0,5.0,30,0.00,,,0.00,Wunderground v.1.15,2013-11-18 00:14:00,
2013-11-17 18:16:00,64.4,32.3,29.88,NNW,344,2.0,5.0,30,0.00,,,0.00,Wunderground v.1.15,2013-11-18 00:16:00,
2013-11-17 18:19:00,64.2,32.1,29.89,NNW,344,1.0,5.0,30,0.00,,,0.00,Wunderground v.1.15,2013-11-18 00:19:00,
2013-11-17 18:22:00,64.0,31.9,29.89,NNW,342,1.0,2.0,30,0.00,,,0.00,Wunderground v.1.15,2013-11-18 00:22:00,
2013-11-17 18:24:00,63.9,31.8,29.89,NNW,344,2.0,2.0,30,0.00,,,0.00,Wunderground v.1.15,2013-11-18 00:24:00,
2013-11-17 18:26:00,63.7,31.7,29.89,NNW,342,1.0,2.0,30,0.00,,,0.00,Wunderground v.1.15,2013-11-18 00:26:00,
2013-11-17 18:29:00,63.5,31.5,29.90,NNW,343,1.0,2.0,30,0.00,,,0.00,Wunderground v.1.15,2013-11-18 00:29:00,
2013-11-17 18:32:00,63.3,31.3,29.90,NNW,343,1.0,1.0,30,0.00,,,0.00,Wunderground v.1.15,2013-11-18 00:32:00,
2013-11-17 18:36:00,63.1,31.1,29.90,NNW,337,1.0,4.0,30,0.00,,,0.00,Wunderground v.1.15,2013-11-18 00:36:00,
2013-11-17 18:40:00,63.0,30.2,29.90,NNW,336,2.0,2.0,29,0.00,,,0.00,Wunderground v.1.15,2013-11-18 00:40:00,
2013-11-17 18:42:00,62.9,31.0,29.90,NNW,337,2.0,2.0,30,0.00,,,0.00,Wunderground v.1.15,2013-11-18 00:42:00,
2013-11-17 18:44:00,62.9,31.0,29.90,NNW,337,2.0,2.0,30,0.00,,,0.00,Wunderground v.1.15,2013-11-18 00:44:00,
2013-11-17 18:49:00,62.7,30.8,29.90,NNW,337,1.0,2.0,30,0.00,,,0.00,Wunderground v.1.15,2013-11-18 00:49:00,
2013-11-17 18:50:00,62.6,30.7,29.90,NNW,337,1.0,1.0,30,0.00,,,0.00,Wunderground v.1.15,2013-11-18 00:50:00,
2013-11-17 18:52:00,62.5,29.8,29.91,NNW,336,0.0,3.0,29,0.00,,,0.00,Wunderground v.1.15,2013-11-18 00:52:00,
2013-11-17 18:54:00,62.4,29.7,29.91,NNW,336,0.0,3.0,29,0.00,,,0.00,Wunderground v.1.15,2013-11-18 00:54:00,
2013-11-17 18:56:00,62.3,30.4,29.91,NNW,336,0.0,3.0,30,0.00,,,0.00,Wunderground v.1.15,2013-11-18 00:56:00,
2013-11-17 18:59:00,62.2,29.5,29.91,NNW,336,1.0,3.0,29,0.00,,,0.00,Wunderground v.1.15,2013-11-18 00:59:00,
2013-11-17 19:02:00,62.1,29.4,29.91,NNW,335,1.0,2.0,29,0.00,,,0.00,Wunderground v.1.15,2013-11-18 01:02:00,
2013-11-17 19:04:00,62.0,29.3,29.91,NNW,334,1.0,2.0,29,0.00,,,0.00,Wunderground v.1.15,2013-11-18 01:04:00,
2013-11-17 19:06:00,62.0,29.3,29.91,NNW,334,1.0,2.0,29,0.00,,,0.00,Wunderground v.1.15,2013-11-18 01:06:00,
2013-11-17 19:09:00,61.9,28.4,29.91,NNW,335,0.0,2.0,28,0.00,,,0.00,Wunderground v.1.15,2013-11-18 01:09:00,
2013-11-17 19:10:00,61.8,28.3,29.91,NNW,335,1.0,2.0,28,0.00,,,0.00,Wunderground v.1.15,2013-11-18 01:10:00,
2013-11-17 19:12:00,61.8,29.2,29.91,NNW,336,1.0,2.0,29,0.00,,,0.00,Wunderground v.1.15,2013-11-18 01:12:00,
2013-11-17 19:19:00,61.7,28.2,29.92,NNW,342,1.0,5.0,28,0.00,,,0.00,Wunderground v.1.15,2013-11-18 01:19:00,
2013-11-17 19:22:00,61.7,27.3,29.92,NNW,341,1.0,1.0,27,0.00,,,0.00,Wunderground v.1.15,2013-11-18 01:22:00,
2013-11-17 19:24:00,61.7,28.2,29.92,NNW,341,1.0,1.0,28,0.00,,,0.00,Wunderground v.1.15,2013-11-18 01:24:00,
2013-11-17 19:30:00,61.4,27.1,29.92,NNW,337,1.0,2.0,27,0.00,,,0.00,Wunderground v.1.15,2013-11-18 01:30:00,
2013-11-17 19:32:00,61.4,27.1,29.92,NNW,336,2.0,2.0,27,0.00,,,0.00,Wunderground v.1.15,2013-11-18 01:32:00,
2013-11-17 19:34:00,61.3,27.0,29.92,NNW,337,2.0,2.0,27,0.00,,,0.00,Wunderground v.1.15,2013-11-18 01:34:00,
2013-11-17 19:36:00,61.3,27.0,29.92,NNW,338,2.0,2.0,27,0.00,,,0.00,Wunderground v.1.15,2013-11-18 01:36:00,
2013-11-17 19:42:00,61.2,26.0,29.93,NNW,340,2.0,2.0,26,0.00,,,0.00,Wunderground v.1.15,2013-11-18 01:42:00,
2013-11-17 19:44:00,61.2,26.0,29.92,NNW,340,2.0,2.0,26,0.00,,,0.00,Wunderground v.1.15,2013-11-18 01:44:00,
2013-11-17 19:46:00,61.1,26.8,29.92,North,349,2.0,5.0,27,0.00,,,0.00,Wunderground v.1.15,2013-11-18 01:46:00,
2013-11-17 19:50:00,60.8,25.7,29.92,North,360,1.0,4.0,26,0.00,,,0.00,Wunderground v.1.15,2013-11-18 01:50:00,
2013-11-17 19:52:00,60.8,26.6,29.92,NW,323,1.0,5.0,27,0.00,,,0.00,Wunderground v.1.15,2013-11-18 01:52:00,
2013-11-17 19:54:00,60.7,25.6,29.92,NNW,327,2.0,5.0,26,0.00,,,0.00,Wunderground v.1.15,2013-11-18 01:54:00,
2013-11-17 19:59:00,60.5,26.3,29.93,NNW,333,2.0,5.0,27,0.00,,,0.00,Wunderground v.1.15,2013-11-18 01:59:00,
2013-11-17 20:00:00,60.5,25.4,29.93,NNW,333,2.0,2.0,26,0.00,,,0.00,Wunderground v.1.15,2013-11-18 02:00:00,
2013-11-17 20:04:00,60.3,25.2,29.94,NNW,333,1.0,2.0,26,0.00,,,0.00,Wunderground v.1.15,2013-11-18 02:04:00,
2013-11-17 20:09:00,60.1,25.1,29.94,NNW,333,0.0,2.0,26,0.00,,,0.00,Wunderground v.1.15,2013-11-18 02:09:00,
2013-11-17 20:10:00,60.0,25.9,29.93,NNW,333,0.0,0.0,27,0.00,,,0.00,Wunderground v.1.15,2013-11-18 02:10:00,
2013-11-17 20:12:00,59.9,25.8,29.93,NNW,333,0.0,0.0,27,0.00,,,0.00,Wunderground v.1.15,2013-11-18 02:12:00,
2013-11-17 20:16:00,59.8,24.8,29.94,NNW,333,0.0,1.0,26,0.00,,,0.00,Wunderground v.1.15,2013-11-18 02:16:00,
2013-11-17 20:19:00,59.6,25.5,29.95,NNW,333,0.0,1.0,27,0.00,,,0.00,Wunderground v.1.15,2013-11-18 02:19:00,
2013-11-17 20:20:00,59.6,24.6,29.96,WNW,299,1.0,2.0,26,0.00,,,0.00,Wunderground v.1.15,2013-11-18 02:20:00,
2013-11-17 20:22:00,59.6,23.7,29.96,WNW,298,1.0,3.0,25,0.00,,,0.00,Wunderground v.1.15,2013-11-18 02:22:00,
2013-11-17 20:26:00,59.6,24.6,29.96,WNW,285,2.0,3.0,26,0.00,,,0.00,Wunderground v.1.15,2013-11-18 02:26:00,
2013-11-17 20:29:00,59.6,23.7,29.96,WNW,295,3.0,3.0,25,0.00,,,0.00,Wunderground v.1.15,2013-11-18 02:29:00,
2013-11-17 20:32:00,59.5,24.5,29.96,WNW,292,2.0,2.0,26,0.00,,,0.00,Wunderground v.1.15,2013-11-18 02:32:00,
2013-11-17 20:34:00,59.4,24.5,29.96,WNW,294,2.0,2.0,26,0.00,,,0.00,Wunderground v.1.15,2013-11-18 02:34:00,
2013-11-17 20:39:00,59.4,23.5,29.96,NW,321,1.0,4.0,25,0.00,,,0.00,Wunderground v.1.15,2013-11-18 02:39:00,
2013-11-17 20:40:00,59.5,23.6,29.96,NW,310,1.0,2.0,25,0.00,,,0.00,Wunderground v.1.15,2013-11-18 02:40:00,
2013-11-17 20:46:00,59.6,22.7,29.97,NNW,345,3.0,4.0,24,0.00,,,0.00,Wunderground v.1.15,2013-11-18 02:46:00,
2013-11-17 20:49:00,59.6,22.7,29.97,NNW,329,3.0,4.0,24,0.00,,,0.00,Wunderground v.1.15,2013-11-18 02:49:00,
2013-11-17 20:50:00,59.6,22.7,29.97,West,271,3.0,3.0,24,0.00,,,0.00,Wunderground v.1.15,2013-11-18 02:50:00,
2013-11-17 20:52:00,59.5,22.6,29.97,NNW,348,3.0,3.0,24,0.00,,,0.00,Wunderground v.1.15,2013-11-18 02:52:00,
2013-11-17 20:56:00,59.3,23.4,29.97,NNW,336,2.0,3.0,25,0.00,,,0.00,Wunderground v.1.15,2013-11-18 02:56:00,
2013-11-17 20:59:00,59.0,23.2,29.97,NNW,336,2.0,3.0,25,0.00,,,0.00,Wunderground v.1.15,2013-11-18 02:59:00,
2013-11-17 21:00:00,59.0,23.2,29.98,NNW,336,1.0,1.0,25,0.00,,,0.00,Wunderground v.1.15,2013-11-18 03:00:00,
2013-11-17 21:02:00,59.0,23.2,29.98,NW,322,1.0,1.0,25,0.00,,,0.00,Wunderground v.1.15,2013-11-18 03:02:00,
2013-11-17 21:04:00,59.0,23.2,29.98,NW,322,1.0,1.0,25,0.00,,,0.00,Wunderground v.1.15,2013-11-18 03:04:00,
2013-11-17 21:06:00,58.8,23.0,29.98,NW,322,1.0,1.0,25,0.00,,,0.00,Wunderground v.1.15,2013-11-18 03:06:00,
2013-11-17 21:09:00,58.6,22.8,29.98,NW,323,1.0,1.0,25,0.00,,,0.00,Wunderground v.1.15,2013-11-18 03:09:00,
2013-11-17 21:10:00,58.5,22.8,29.98,NW,322,1.0,2.0,25,0.00,,,0.00,Wunderground v.1.15,2013-11-18 03:10:00,
2013-11-17 21:12:00,58.4,22.7,29.98,NW,322,1.0,2.0,25,0.00,,,0.00,Wunderground v.1.15,2013-11-18 03:12:00,
2013-11-17 21:14:00,58.2,22.5,29.98,NW,322,1.0,2.0,25,0.00,,,0.00,Wunderground v.1.15,2013-11-18 03:14:00,
2013-11-17 21:19:00,58.0,23.3,29.99,NW,322,1.0,2.0,26,0.00,,,0.00,Wunderground v.1.15,2013-11-18 03:19:00,
2013-11-17 21:22:00,57.7,23.0,29.99,NW,322,1.0,1.0,26,0.00,,,0.00,Wunderground v.1.15,2013-11-18 03:22:00,
2013-11-17 21:26:00,57.5,22.8,30.00,NW,322,1.0,1.0,26,0.00,,,0.00,Wunderground v.1.15,2013-11-18 03:26:00,
2013-11-17 21:29:00,57.4,22.8,29.99,NW,322,0.0,1.0,26,0.00,,,0.00,Wunderground v.1.15,2013-11-18 03:29:00,
2013-11-17 21:30:00,57.3,23.6,29.99,NW,322,0.0,0.0,27,0.00,,,0.00,Wunderground v.1.15,2013-11-18 03:30:00,
2013-11-17 21:32:00,57.1,23.4,30.00,NW,322,0.0,0.0,27,0.00,,,0.00,Wunderground v.1.15,2013-11-18 03:32:00,
2013-11-17 21:34:00,57.0,22.4,30.00,NW,322,0.0,0.0,26,0.00,,,0.00,Wunderground v.1.15,2013-11-18 03:34:00,
2013-11-17 21:36:00,56.8,23.1,30.00,NW,322,0.0,0.0,27,0.00,,,0.00,Wunderground v.1.15,2013-11-18 03:36:00,
2013-11-17 21:39:00,56.6,23.0,30.00,NW,321,0.0,0.0,27,0.00,,,0.00,Wunderground v.1.15,2013-11-18 03:39:00,
2013-11-17 21:40:00,56.5,22.9,30.00,NW,322,0.0,0.0,27,0.00,,,0.00,Wunderground v.1.15,2013-11-18 03:40:00,
2013-11-17 21:42:00,56.3,22.7,30.00,NW,322,0.0,0.0,27,0.00,,,0.00,Wunderground v.1.15,2013-11-18 03:42:00,
2013-11-17 21:44:00,56.2,22.6,30.00,NW,322,0.0,0.0,27,0.00,,,0.00,Wunderground v.1.15,2013-11-18 03:44:00,
2013-11-17 21:46:00,56.1,23.4,30.00,NW,322,0.0,0.0,28,0.00,,,0.00,Wunderground v.1.15,2013-11-18 03:46:00,
2013-11-17 21:50:00,55.8,23.1,30.01,NW,322,0.0,0.0,28,0.00,,,0.00,Wunderground v.1.15,2013-11-18 03:50:00,
2013-11-17 21:52:00,55.7,23.1,30.01,NW,321,0.0,0.0,28,0.00,,,0.00,Wunderground v.1.15,2013-11-18 03:52:00,
2013-11-17 21:54:00,55.6,22.1,30.01,NW,323,0.0,0.0,27,0.00,,,0.00,Wunderground v.1.15,2013-11-18 03:54:00,
2013-11-17 21:56:00,55.6,23.0,30.01,NW,323,0.0,0.0,28,0.00,,,0.00,Wunderground v.1.15,2013-11-18 03:56:00,
2013-11-17 22:00:00,55.6,23.0,30.01,NW,323,0.0,0.0,28,0.00,,,0.00,Wunderground v.1.15,2013-11-18 04:00:00,
2013-11-17 22:04:00,55.5,22.9,30.01,NW,323,0.0,0.0,28,0.00,,,0.00,Wunderground v.1.15,2013-11-18 04:04:00,
2013-11-17 22:06:00,55.4,23.6,30.02,NW,323,0.0,0.0,29,0.00,,,0.00,Wunderground v.1.15,2013-11-18 04:06:00,
2013-11-17 22:10:00,55.3,23.5,30.03,NW,323,0.0,1.0,29,0.00,,,0.00,Wunderground v.1.15,2013-11-18 04:10:00,
2013-11-17 22:12:00,55.3,23.5,30.03,NW,323,1.0,2.0,29,0.00,,,0.00,Wunderground v.1.15,2013-11-18 04:12:00,
2013-11-17 22:14:00,55.4,23.6,30.03,NW,324,1.0,2.0,29,0.00,,,0.00,Wunderground v.1.15,2013-11-18 04:14:00,
2013-11-17 22:19:00,55.4,23.6,30.03,NW,325,1.0,2.0,29,0.00,,,0.00,Wunderground v.1.15,2013-11-18 04:19:00,
2013-11-17 22:20:00,55.3,23.5,30.03,NW,325,1.0,1.0,29,0.00,,,0.00,Wunderground v.1.15,2013-11-18 04:20:00,
2013-11-17 22:24:00,55.2,23.5,30.03,NW,325,0.0,1.0,29,0.00,,,0.00,Wunderground v.1.15,2013-11-18 04:24:00,
2013-11-17 22:26:00,55.1,23.4,30.03,NW,325,0.0,1.0,29,0.00,,,0.00,Wunderground v.1.15,2013-11-18 04:26:00,
2013-11-17 22:30:00,55.0,23.3,30.03,NW,325,0.0,1.0,29,0.00,,,0.00,Wunderground v.1.15,2013-11-18 04:30:00,
2013-11-17 22:32:00,55.0,23.3,30.03,NW,325,0.0,1.0,29,0.00,,,0.00,Wunderground v.1.15,2013-11-18 04:32:00,
2013-11-17 22:36:00,54.9,23.2,30.03,NW,325,0.0,1.0,29,0.00,,,0.00,Wunderground v.1.15,2013-11-18 04:36:00,
2013-11-17 22:39:00,54.9,24.0,30.03,NW,325,0.0,1.0,30,0.00,,,0.00,Wunderground v.1.15,2013-11-18 04:39:00,
2013-11-17 22:40:00,54.8,23.9,30.03,NW,325,0.0,0.0,30,0.00,,,0.00,Wunderground v.1.15,2013-11-18 04:40:00,
2013-11-17 22:42:00,54.8,23.1,30.03,NW,325,0.0,0.0,29,0.00,,,0.00,Wunderground v.1.15,2013-11-18 04:42:00,
2013-11-17 22:44:00,54.7,23.8,30.03,NW,325,0.0,0.0,30,0.00,,,0.00,Wunderground v.1.15,2013-11-18 04:44:00,
2013-11-17 22:46:00,54.6,23.7,30.03,NW,325,0.0,2.0,30,0.00,,,0.00,Wunderground v.1.15,2013-11-18 04:46:00,
2013-11-17 22:49:00,54.5,23.7,30.03,NW,325,0.0,2.0,30,0.00,,,0.00,Wunderground v.1.15,2013-11-18 04:49:00,
2013-11-17 22:52:00,54.4,23.6,30.03,NW,325,0.0,1.0,30,0.00,,,0.00,Wunderground v.1.15,2013-11-18 04:52:00,
2013-11-17 22:54:00,54.3,23.5,30.03,NW,325,0.0,1.0,30,0.00,,,0.00,Wunderground v.1.15,2013-11-18 04:54:00,
2013-11-17 22:56:00,54.3,23.5,30.03,NW,325,0.0,1.0,30,0.00,,,0.00,Wunderground v.1.15,2013-11-18 04:56:00,
2013-11-17 22:59:00,54.2,23.4,30.03,NW,325,0.0,1.0,30,0.00,,,0.00,Wunderground v.1.15,2013-11-18 04:59:00,
2013-11-17 23:00:00,54.1,23.3,30.03,NW,325,0.0,0.0,30,0.00,,,0.00,Wunderground v.1.15,2013-11-18 05:00:00,
2013-11-17 23:02:00,54.1,24.1,30.03,NW,325,0.0,0.0,31,0.00,,,0.00,Wunderground v.1.15,2013-11-18 05:02:00,
2013-11-17 23:04:00,54.0,24.0,30.03,NW,325,0.0,0.0,31,0.00,,,0.00,Wunderground v.1.15,2013-11-18 05:04:00,
2013-11-17 23:06:00,53.9,23.9,30.03,NW,325,0.0,0.0,31,0.00,,,0.00,Wunderground v.1.15,2013-11-18 05:06:00,
2013-11-17 23:09:00,53.8,23.8,30.03,NW,325,0.0,0.0,31,0.00,,,0.00,Wunderground v.1.15,2013-11-18 05:09:00,
2013-11-17 23:10:00,53.7,23.7,30.03,NW,325,0.0,0.0,31,0.00,,,0.00,Wunderground v.1.15,2013-11-18 05:10:00,
2013-11-17 23:12:00,53.6,23.7,30.04,NW,325,0.0,0.0,31,0.00,,,0.00,Wunderground v.1.15,2013-11-18 05:12:00,
2013-11-17 23:14:00,53.5,23.6,30.04,NW,325,0.0,0.0,31,0.00,,,0.00,Wunderground v.1.15,2013-11-18 05:14:00,
2013-11-17 23:16:00,53.4,23.5,30.04,NW,325,0.0,0.0,31,0.00,,,0.00,Wunderground v.1.15,2013-11-18 05:16:00,
2013-11-17 23:20:00,53.2,24.1,30.04,NW,325,0.0,0.0,32,0.00,,,0.00,Wunderground v.1.15,2013-11-18 05:20:00,
2013-11-17 23:22:00,53.1,24.0,30.04,NW,325,0.0,0.0,32,0.00,,,0.00,Wunderground v.1.15,2013-11-18 05:22:00,
2013-11-17 23:24:00,53.0,23.9,30.04,NW,325,0.0,0.0,32,0.00,,,0.00,Wunderground v.1.15,2013-11-18 05:24:00,
2013-11-17 23:26:00,52.9,23.8,30.04,NW,325,0.0,0.0,32,0.00,,,0.00,Wunderground v.1.15,2013-11-18 05:26:00,
2013-11-17 23:29:00,52.8,23.7,30.04,NW,325,0.0,0.0,32,0.00,,,0.00,Wunderground v.1.15,2013-11-18 05:29:00,
2013-11-17 23:30:00,52.8,23.7,30.04,NW,325,0.0,0.0,32,0.00,,,0.00,Wunderground v.1.15,2013-11-18 05:30:00,
2013-11-17 23:34:00,52.8,23.7,30.04,NW,325,0.0,1.0,32,0.00,,,0.00,Wunderground v.1.15,2013-11-18 05:34:00,
2013-11-17 23:36:00,52.8,24.5,30.04,NW,325,0.0,2.0,33,0.00,,,0.00,Wunderground v.1.15,2013-11-18 05:36:00,
2013-11-17 23:39:00,52.7,24.4,30.04,NW,326,1.0,2.0,33,0.00,,,0.00,Wunderground v.1.15,2013-11-18 05:39:00,
2013-11-17 23:42:00,52.7,24.4,30.04,NNW,329,1.0,2.0,33,0.00,,,0.00,Wunderground v.1.15,2013-11-18 05:42:00,
2013-11-17 23:44:00,52.6,24.3,30.03,NNW,329,1.0,2.0,33,0.00,,,0.00,Wunderground v.1.15,2013-11-18 05:44:00,
2013-11-17 23:46:00,52.5,24.9,30.03,NNW,331,1.0,2.0,34,0.00,,,0.00,Wunderground v.1.15,2013-11-18 05:46:00,
2013-11-17 23:49:00,52.4,24.8,30.03,NNW,338,1.0,2.0,34,0.00,,,0.00,Wunderground v.1.15,2013-11-18 05:49:00,
2013-11-17 23:50:00,52.4,24.8,30.04,NNW,338,1.0,1.0,34,0.00,,,0.00,Wunderground v.1.15,2013-11-18 05:50:00,
2013-11-17 23:54:00,52.3,24.7,30.04,NNW,338,0.0,1.0,34,0.00,,,0.00,Wunderground v.1.15,2013-11-18 05:54:00,
2013-11-17 23:56:00,52.2,23.9,30.04,NNW,338,0.0,1.0,33,0.00,,,0.00,Wunderground v.1.15,2013-11-18 05:56:00,